Sigas Ingrid — VRCQ6 — position and weather

sailwx.info

Track history (hours):
 
Tides and Currents Weather Stations Pressure Air Temp Water Temp Dewpoint Dewpoint Depression Visibility Wind Speed Wind Dir Waves Ship Positions

Sigas Ingrid

Last reported at 2014-Oct-21 20:33 UTC. Time now 2014-Oct-24 14:51 UTC.
Position N 42°10' E 029°26'.

Length 100 m; draft 5.7 m.

Type: Ship (hazmat cat B). MMSI: 477658800.

Date/timePositionNaut miles runAvg speedWind from/ knotsBaromVisibWave heightAir tempDewpointWater temp
2014-Oct-21 20:33N 42°10' E 029°26'1211.9
2014-Oct-21 19:33N 41°58' E 029°22'1212.1
2014-Oct-21 18:34N 41°46' E 029°19'2412.1
2014-Oct-21 16:34N 41°22' E 029°14'23 9.5
2014-Oct-21 14:07N 41°01' E 029°00'6 9.9
2014-Oct-21 13:33N 40°56' E 028°59'8 7.1
2014-Oct-21 12:28N 40°50' E 028°53'1 0.6
2014-Oct-21 11:34N 40°49' E 028°53'0 0.5
2014-Oct-21 10:31N 40°49' E 028°53'0 0.3
2014-Oct-21 09:33N 40°48' E 028°53'0 0.2
2014-Oct-21 08:28N 40°48' E 028°53'0 0.2
2014-Oct-21 07:20N 40°48' E 028°53'0 0.1
2014-Oct-21 06:34N 40°48' E 028°54'0 0.0
2014-Oct-21 05:34N 40°48' E 028°54'3 2.6
2014-Oct-21 04:33N 40°51' E 028°53'1 0.8
2014-Oct-21 03:33N 40°50' E 028°53'1 0.7
2014-Oct-21 02:32N 40°49' E 028°53'1 0.7
2014-Oct-21 01:26N 40°48' E 028°53'0 0.4
2014-Oct-21 00:33N 40°48' E 028°53'0 0.2
2014-Oct-20 23:34N 40°48' E 028°53'0 0.1
2014-Oct-20 22:34N 40°48' E 028°53'1 0.8
2014-Oct-20 21:34N 40°47' E 028°54'8 7.8
2014-Oct-20 20:33N 40°50' E 028°45'13910.5
2014-Oct-20 07:21N 39°56' E 025°57'151 9.9
2014-Oct-19 16:10N 37°41' E 024°30'17 8.8
2014-Oct-19 14:18N 37°27' E 024°20'18 9.5
2014-Oct-19 12:26N 37°12' E 024°07'12 9.5
2014-Oct-19 11:12N 37°03' E 023°57'6 8.8
2014-Oct-19 10:28N 36°58' E 023°52'9 8.2
2014-Oct-19 09:26N 36°51' E 023°47'  
2014-Oct-16 06:33N 43°07' E 009°30'1312.3
2014-Oct-16 05:32N 43°05' E 009°13'10012.1
2014-Oct-15 21:17N 42°50' E 006°58'911.6
2014-Oct-15 20:28N 42°47' E 006°45'5510.7
2014-Oct-15 15:19N 42°24' E 005°38'1111.6
2014-Oct-15 14:20N 42°24' E 005°22'1910.9
2014-Oct-15 12:32N 42°32' E 004°58'1411.9
2014-Oct-15 11:23N 42°40' E 004°44'1011.8
2014-Oct-15 10:31N 42°48' E 004°35'1111.0
2014-Oct-15 09:31N 42°57' E 004°25'5 5.3
2014-Oct-15 08:33N 43°01' E 004°21'1 0.6
2014-Oct-15 07:33N 43°01' E 004°22'1 0.6
2014-Oct-15 06:33N 43°00' E 004°23'1 0.6
2014-Oct-15 05:33N 43°00' E 004°23'1 0.6
2014-Oct-15 04:33N 43°00' E 004°24'1 0.5
2014-Oct-15 03:34N 43°00' E 004°25'1 0.5
2014-Oct-15 02:33N 42°60' E 004°26'1 0.6
2014-Oct-15 01:33N 42°60' E 004°26'1 0.7
2014-Oct-15 00:33N 42°59' E 004°27'1 0.8
2014-Oct-14 23:33N 42°59' E 004°28'1 0.9
2014-Oct-14 22:33N 42°58' E 004°29'1 0.9
2014-Oct-14 21:33N 42°58' E 004°30'1 0.9
2014-Oct-14 20:33N 42°57' E 004°31'1 0.9
2014-Oct-14 19:31N 42°57' E 004°32'1 1.0
2014-Oct-14 18:33N 42°56' E 004°33'1 1.0
2014-Oct-14 17:33N 42°56' E 004°35'2 1.7
2014-Oct-14 16:29N 42°58' E 004°35'910.1
2014-Oct-14 15:33N 43°07' E 004°37'1 0.9
2014-Oct-14 14:33N 43°08' E 004°38'1 1.4
2014-Oct-14 13:33N 43°07' E 004°39'1 1.3
2014-Oct-14 12:33N 43°06' E 004°41'1 1.2
2014-Oct-14 11:33N 43°05' E 004°42'1 1.0
2014-Oct-14 10:33N 43°05' E 004°43'1 0.9
2014-Oct-14 09:33N 43°04' E 004°44'1 0.8
2014-Oct-14 08:33N 43°04' E 004°45'1 0.9
2014-Oct-14 07:27N 43°03' E 004°46'2 0.8
2014-Oct-14 05:18N 43°03' E 004°49'810.2
2014-Oct-14 04:33N 43°08' E 004°56'8 8.3
2014-Oct-14 03:33N 43°16' E 004°60'8 8.0
2014-Oct-14 02:34N 43°24' E 004°59'1 0.6
2014-Oct-14 01:31N 43°24' E 004°60'0 0.0
2014-Oct-14 00:31N 43°24' E 004°60'0 0.0
2014-Oct-13 23:31N 43°24' E 004°60'0 0.0
2014-Oct-13 22:31N 43°24' E 004°60'0 0.0
2014-Oct-13 21:31N 43°24' E 004°60'0 0.0
2014-Oct-13 20:31N 43°24' E 004°60'0 0.0
2014-Oct-13 19:31N 43°24' E 004°60'0 0.0
2014-Oct-13 18:31N 43°24' E 004°60'0 0.0
2014-Oct-13 17:31N 43°24' E 004°60'0 0.0
2014-Oct-13 16:31N 43°24' E 004°60'0 0.0
2014-Oct-13 15:31N 43°24' E 004°60'0 0.0
2014-Oct-13 14:31N 43°24' E 004°60'0 0.0
2014-Oct-13 13:31N 43°24' E 004°60'0 0.0
2014-Oct-13 12:31N 43°24' E 004°60'0 0.0
2014-Oct-13 11:31N 43°24' E 004°60'0 0.0
2014-Oct-13 10:31N 43°24' E 004°60'0 0.0
2014-Oct-13 09:31N 43°24' E 004°60'0 0.0
2014-Oct-13 08:31N 43°24' E 004°60'0 0.0
2014-Oct-13 07:31N 43°24' E 004°60'0 0.0
2014-Oct-13 06:31N 43°24' E 004°60'0 0.0
2014-Oct-13 05:31N 43°24' E 004°60'0 0.0
2014-Oct-13 04:31N 43°24' E 004°60'0 0.0
2014-Oct-13 03:31N 43°24' E 004°60'0 0.0
2014-Oct-13 02:31N 43°24' E 004°60'0 0.0
2014-Oct-13 01:31N 43°24' E 004°60'0 0.0
2014-Oct-13 00:31N 43°24' E 004°60'0 0.0
2014-Oct-12 23:31N 43°24' E 004°60'1 0.7
2014-Oct-12 22:33N 43°24' E 004°59'9 8.8
2014-Oct-12 21:33N 43°15' E 005°01'7311.5
2014-Oct-12 15:12N 42°47' E 006°34'913.2
2014-Oct-12 14:33N 42°49' E 006°45'1313.1
2014-Oct-12 13:33N 42°51' E 007°03'  
Track history (hours):
 
Tides and Currents Weather Stations Pressure Air Temp Water Temp Dewpoint Dewpoint Depression Visibility Wind Speed Wind Dir Waves Ship Positions

Sigas Ingrid

Last reported at 2014-Oct-21 20:33 UTC. Time now 2014-Oct-24 14:51 UTC.
Position N 42°10' E 029°26'.

Length 100 m; draft 5.7 m.

Type: Ship (hazmat cat B). MMSI: 477658800.

Date/timePositionNaut miles runAvg speedWind from/ knotsBaromVisibWave heightAir tempDewpointWater temp
2014-Oct-21 20:33N 42°10' E 029°26'1211.9
2014-Oct-21 19:33N 41°58' E 029°22'1212.1
2014-Oct-21 18:34N 41°46' E 029°19'2412.1
2014-Oct-21 16:34N 41°22' E 029°14'23 9.5
2014-Oct-21 14:07N 41°01' E 029°00'6 9.9
2014-Oct-21 13:33N 40°56' E 028°59'8 7.1
2014-Oct-21 12:28N 40°50' E 028°53'1 0.6
2014-Oct-21 11:34N 40°49' E 028°53'0 0.5
2014-Oct-21 10:31N 40°49' E 028°53'0 0.3
2014-Oct-21 09:33N 40°48' E 028°53'0 0.2
2014-Oct-21 08:28N 40°48' E 028°53'0 0.2
2014-Oct-21 07:20N 40°48' E 028°53'0 0.1
2014-Oct-21 06:34N 40°48' E 028°54'0 0.0
2014-Oct-21 05:34N 40°48' E 028°54'3 2.6
2014-Oct-21 04:33N 40°51' E 028°53'1 0.8
2014-Oct-21 03:33N 40°50' E 028°53'1 0.7
2014-Oct-21 02:32N 40°49' E 028°53'1 0.7
2014-Oct-21 01:26N 40°48' E 028°53'0 0.4
2014-Oct-21 00:33N 40°48' E 028°53'0 0.2
2014-Oct-20 23:34N 40°48' E 028°53'0 0.1
2014-Oct-20 22:34N 40°48' E 028°53'1 0.8
2014-Oct-20 21:34N 40°47' E 028°54'8 7.8
2014-Oct-20 20:33N 40°50' E 028°45'13910.5
2014-Oct-20 07:21N 39°56' E 025°57'151 9.9
2014-Oct-19 16:10N 37°41' E 024°30'17 8.8
2014-Oct-19 14:18N 37°27' E 024°20'18 9.5
2014-Oct-19 12:26N 37°12' E 024°07'12 9.5
2014-Oct-19 11:12N 37°03' E 023°57'6 8.8
2014-Oct-19 10:28N 36°58' E 023°52'9 8.2
2014-Oct-19 09:26N 36°51' E 023°47'  
2014-Oct-16 06:33N 43°07' E 009°30'1312.3
2014-Oct-16 05:32N 43°05' E 009°13'10012.1
2014-Oct-15 21:17N 42°50' E 006°58'911.6
2014-Oct-15 20:28N 42°47' E 006°45'5510.7
2014-Oct-15 15:19N 42°24' E 005°38'1111.6
2014-Oct-15 14:20N 42°24' E 005°22'1910.9
2014-Oct-15 12:32N 42°32' E 004°58'1411.9
2014-Oct-15 11:23N 42°40' E 004°44'1011.8
2014-Oct-15 10:31N 42°48' E 004°35'1111.0
2014-Oct-15 09:31N 42°57' E 004°25'5 5.3
2014-Oct-15 08:33N 43°01' E 004°21'1 0.6
2014-Oct-15 07:33N 43°01' E 004°22'1 0.6
2014-Oct-15 06:33N 43°00' E 004°23'1 0.6
2014-Oct-15 05:33N 43°00' E 004°23'1 0.6
2014-Oct-15 04:33N 43°00' E 004°24'1 0.5
2014-Oct-15 03:34N 43°00' E 004°25'1 0.5
2014-Oct-15 02:33N 42°60' E 004°26'1 0.6
2014-Oct-15 01:33N 42°60' E 004°26'1 0.7
2014-Oct-15 00:33N 42°59' E 004°27'1 0.8
2014-Oct-14 23:33N 42°59' E 004°28'1 0.9
2014-Oct-14 22:33N 42°58' E 004°29'1 0.9
2014-Oct-14 21:33N 42°58' E 004°30'1 0.9
2014-Oct-14 20:33N 42°57' E 004°31'1 0.9
2014-Oct-14 19:31N 42°57' E 004°32'1 1.0
2014-Oct-14 18:33N 42°56' E 004°33'1 1.0
2014-Oct-14 17:33N 42°56' E 004°35'2 1.7
2014-Oct-14 16:29N 42°58' E 004°35'910.1
2014-Oct-14 15:33N 43°07' E 004°37'1 0.9
2014-Oct-14 14:33N 43°08' E 004°38'1 1.4
2014-Oct-14 13:33N 43°07' E 004°39'1 1.3
2014-Oct-14 12:33N 43°06' E 004°41'1 1.2
2014-Oct-14 11:33N 43°05' E 004°42'1 1.0
2014-Oct-14 10:33N 43°05' E 004°43'1 0.9
2014-Oct-14 09:33N 43°04' E 004°44'1 0.8
2014-Oct-14 08:33N 43°04' E 004°45'1 0.9
2014-Oct-14 07:27N 43°03' E 004°46'2 0.8
2014-Oct-14 05:18N 43°03' E 004°49'810.2
2014-Oct-14 04:33N 43°08' E 004°56'8 8.3
2014-Oct-14 03:33N 43°16' E 004°60'8 8.0
2014-Oct-14 02:34N 43°24' E 004°59'1 0.6
2014-Oct-14 01:31N 43°24' E 004°60'0 0.0
2014-Oct-14 00:31N 43°24' E 004°60'0 0.0
2014-Oct-13 23:31N 43°24' E 004°60'0 0.0
2014-Oct-13 22:31N 43°24' E 004°60'0 0.0
2014-Oct-13 21:31N 43°24' E 004°60'0 0.0
2014-Oct-13 20:31N 43°24' E 004°60'0 0.0
2014-Oct-13 19:31N 43°24' E 004°60'0 0.0
2014-Oct-13 18:31N 43°24' E 004°60'0 0.0
2014-Oct-13 17:31N 43°24' E 004°60'0 0.0
2014-Oct-13 16:31N 43°24' E 004°60'0 0.0
2014-Oct-13 15:31N 43°24' E 004°60'0 0.0
2014-Oct-13 14:31N 43°24' E 004°60'0 0.0
2014-Oct-13 13:31N 43°24' E 004°60'0 0.0
2014-Oct-13 12:31N 43°24' E 004°60'0 0.0
2014-Oct-13 11:31N 43°24' E 004°60'0 0.0
2014-Oct-13 10:31N 43°24' E 004°60'0 0.0
2014-Oct-13 09:31N 43°24' E 004°60'0 0.0
2014-Oct-13 08:31N 43°24' E 004°60'0 0.0
2014-Oct-13 07:31N 43°24' E 004°60'0 0.0
2014-Oct-13 06:31N 43°24' E 004°60'0 0.0
2014-Oct-13 05:31N 43°24' E 004°60'0 0.0
2014-Oct-13 04:31N 43°24' E 004°60'0 0.0
2014-Oct-13 03:31N 43°24' E 004°60'0 0.0
2014-Oct-13 02:31N 43°24' E 004°60'0 0.0
2014-Oct-13 01:31N 43°24' E 004°60'0 0.0
2014-Oct-13 00:31N 43°24' E 004°60'0 0.0
2014-Oct-12 23:31N 43°24' E 004°60'1 0.7
2014-Oct-12 22:33N 43°24' E 004°59'9 8.8
2014-Oct-12 21:33N 43°15' E 005°01'7311.5
2014-Oct-12 15:12N 42°47' E 006°34'913.2
2014-Oct-12 14:33N 42°49' E 006°45'1313.1
2014-Oct-12 13:33N 42°51' E 007°03'  

Dump ship's entire track history